When you browse on this site, cookies collect data to enhance your experience and personalize the content and advertising you see.
Visit our Privacy Policy to learn more. By continuing to use the site, you agree to this use of cookies and data.
  • In Hungary
  • List of Countries
  • For 7 days
  • Water Temperature
  • Weather Map
  • News
  • Weather Widgets
  • user-avatar
    Login

    Hourly Weather Hamaitli

    Today, 17 October, Thursday

    Time Temperature Precipitation Wind Pressure Humidity
    00:00 +10°C° 0 mm 1 mps 633 mmHg 55%
    01:00 +9°C° 0 mm 1 mps 633 mmHg 55%
    02:00 +9°C° 0 mm 1 mps 633 mmHg 56%
    03:00 +9°C° 0 mm 1 mps 633 mmHg 55%
    04:00 +9°C° 0 mm 1 mps 633 mmHg 55%
    05:00 +9°C° 0 mm 1 mps 634 mmHg 56%
    06:00 +9°C° 0 mm 1 mps 634 mmHg 56%
    07:00 +11°C° 0 mm 1 mps 635 mmHg 51%
    08:00 +13°C° 0 mm 1 mps 635 mmHg 47%
    09:00 +16°C° 0 mm 1 mps 636 mmHg 42%
    10:00 +17°C° 0 mm 2 mps 636 mmHg 40%
    11:00 +18°C° 0 mm 2 mps 637 mmHg 38%
    12:00 +19°C° 0 mm 2 mps 637 mmHg 35%
    13:00 +19°C° 0 mm 2 mps 636 mmHg 36%
    14:00 +18°C° 0 mm 2 mps 636 mmHg 37%
    15:00 +18°C° 0 mm 2 mps 636 mmHg 39%
    16:00 +16°C° 0 mm 2 mps 635 mmHg 48%
    17:00 +14°C° 0 mm 1 mps 634 mmHg 57%
    18:00 +11°C° 0 mm 1 mps 634 mmHg 67%
    19:00 +11°C° 0 mm 1 mps 633 mmHg 65%
    20:00 +10°C° 0 mm 1 mps 633 mmHg 64%
    21:00 +10°C° 0 mm 1 mps 633 mmHg 62%
    22:00 +10°C° 0 mm 1 mps 633 mmHg 61%
    23:00 +9°C° 0 mm 1 mps 633 mmHg 60%

    Tomorrow, 18 October, Friday

    Time Temperature Precipitation Wind Pressure Humidity
    00:00 +9°C° 0 mm 1 mps 632 mmHg 60%
    01:00 +9°C° 0 mm 1 mps 632 mmHg 60%
    02:00 +9°C° 0 mm 1 mps 632 mmHg 60%
    03:00 +9°C° 0 mm 1 mps 632 mmHg 61%
    04:00 +9°C° 0 mm 1 mps 632 mmHg 61%
    05:00 +9°C° 0 mm 1 mps 632 mmHg 62%
    06:00 +9°C° 0 mm 1 mps 631 mmHg 62%
    07:00 +12°C° 0 mm 1 mps 632 mmHg 55%
    08:00 +14°C° 0 mm 1 mps 633 mmHg 48%
    09:00 +16°C° 0 mm 0 mps 634 mmHg 41%
    10:00 +17°C° 0 mm 0 mps 634 mmHg 37%
    11:00 +20°C° 0 mm 1 mps 634 mmHg 34%
    12:00 +21°C° 0 mm 1 mps 635 mmHg 30%
    13:00 +21°C° 0 mm 1 mps 634 mmHg 32%
    14:00 +21°C° 0 mm 1 mps 634 mmHg 33%
    15:00 +20°C° 0 mm 1 mps 633 mmHg 35%
    16:00 +18°C° 0 mm 1 mps 633 mmHg 42%
    17:00 +15°C° 0 mm 1 mps 632 mmHg 50%
    18:00 +13°C° 0 mm 1 mps 631 mmHg 57%
    19:00 +12°C° 0 mm 1 mps 631 mmHg 56%
    20:00 +12°C° 0 mm 1 mps 631 mmHg 54%
    21:00 +12°C° 0 mm 1 mps 631 mmHg 53%
    22:00 +11°C° 0 mm 1 mps 631 mmHg 51%
    23:00 +11°C° 0 mm 1 mps 631 mmHg 49%

    Day after tomorrow, 19 October, Saturday

    Time Temperature Precipitation Wind Pressure Humidity
    00:00 +11°C° 0 mm 1 mps 631 mmHg 46%
    01:00 +11°C° 0 mm 1 mps 631 mmHg 46%
    02:00 +10°C° 0 mm 1 mps 631 mmHg 46%
    03:00 +10°C° 0 mm 1 mps 631 mmHg 46%
    04:00 +10°C° 0 mm 1 mps 631 mmHg 47%
    05:00 +10°C° 0 mm 1 mps 631 mmHg 48%
    06:00 +10°C° 0 mm 1 mps 631 mmHg 49%
    07:00 +12°C° 0 mm 1 mps 632 mmHg 46%
    08:00 +13°C° 0 mm 0 mps 633 mmHg 43%
    09:00 +15°C° 0 mm 0 mps 634 mmHg 40%
    10:00 +16°C° 0 mm 0 mps 634 mmHg 40%
    11:00 +19°C° 0 mm 1 mps 634 mmHg 40%
    12:00 +20°C° 0 mm 1 mps 634 mmHg 40%
    13:00 +19°C° 0.1 mm 1 mps 634 mmHg 43%
    14:00 +19°C° 0.1 mm 1 mps 634 mmHg 46%
    15:00 +19°C° 0.1 mm 1 mps 633 mmHg 49%
    16:00 +16°C° 0.2 mm 1 mps 633 mmHg 56%
    17:00 +13°C° 0.2 mm 0 mps 633 mmHg 63%
    18:00 +12°C° 0.2 mm 0 mps 633 mmHg 70%
    19:00 +11°C° 0 mm 0 mps 633 mmHg 71%
    20:00 +11°C° 0 mm 0 mps 633 mmHg 72%
    21:00 +11°C° 0 mm 0 mps 633 mmHg 73%
    22:00 +10°C° 0 mm 0 mps 633 mmHg 75%
    23:00 +10°C° 0 mm 0 mps 633 mmHg 78%

    20 October, Sunday

    Time Temperature Precipitation Wind Pressure Humidity
    00:00 +10°C° 0 mm 1 mps 633 mmHg 80%
    01:00 +10°C° 0 mm 1 mps 632 mmHg 82%
    02:00 +10°C° 0 mm 1 mps 632 mmHg 83%
    03:00 +9°C° 0 mm 1 mps 632 mmHg 85%
    04:00 +9°C° 0 mm 1 mps 633 mmHg 84%
    05:00 +9°C° 0 mm 1 mps 633 mmHg 84%
    06:00 +9°C° 0 mm 1 mps 633 mmHg 84%
    07:00 +10°C° 0 mm 0 mps 634 mmHg 77%
    08:00 +12°C° 0 mm 0 mps 635 mmHg 70%
    09:00 +14°C° 0 mm 0 mps 635 mmHg 62%
    10:00 +16°C° 0.2 mm 1 mps 636 mmHg 60%
    11:00 +18°C° 0.2 mm 1 mps 636 mmHg 58%
    12:00 +18°C° 0.2 mm 2 mps 636 mmHg 56%
    13:00 +18°C° 0.6 mm 1 mps 636 mmHg 59%
    14:00 +18°C° 0.6 mm 1 mps 635 mmHg 61%
    15:00 +16°C° 0.6 mm 1 mps 635 mmHg 64%
    16:00 +15°C° 0.3 mm 1 mps 635 mmHg 71%
    17:00 +13°C° 0.3 mm 1 mps 634 mmHg 79%
    18:00 +11°C° 0.3 mm 0 mps 634 mmHg 87%
    19:00 +10°C° 0 mm 0 mps 634 mmHg 88%
    20:00 +10°C° 0 mm 0 mps 634 mmHg 89%
    21:00 +9°C° 0 mm 0 mps 634 mmHg 90%
    22:00 +9°C° 0 mm 0 mps 634 mmHg 91%
    23:00 +10°C° 0 mm 1 mps 634 mmHg 92%

    21 October, Monday

    Time Temperature Precipitation Wind Pressure Humidity
    00:00 +10°C° 0 mm 1 mps 634 mmHg 93%
    01:00 +10°C° 0 mm 1 mps 634 mmHg 93%
    02:00 +10°C° 0 mm 1 mps 634 mmHg 93%
    03:00 +9°C° 0 mm 1 mps 633 mmHg 93%
    04:00 +9°C° 0 mm 1 mps 633 mmHg 92%
    05:00 +9°C° 0 mm 1 mps 633 mmHg 91%
    06:00 +9°C° 0 mm 1 mps 633 mmHg 91%
    07:00 +11°C° 0 mm 1 mps 634 mmHg 83%
    08:00 +12°C° 0 mm 1 mps 635 mmHg 76%
    09:00 +14°C° 0 mm 1 mps 635 mmHg 69%
    10:00 +15°C° 0 mm 1 mps 636 mmHg 66%
    11:00 +16°C° 0 mm 1 mps 636 mmHg 63%
    12:00 +17°C° 0 mm 2 mps 636 mmHg 61%
    13:00 +18°C° 0.1 mm 1 mps 636 mmHg 63%
    14:00 +16°C° 0.1 mm 1 mps 635 mmHg 66%
    15:00 +16°C° 0.1 mm 1 mps 635 mmHg 68%
    16:00 +14°C° 0 mm 1 mps 635 mmHg 76%
    17:00 +13°C° 0 mm 1 mps 634 mmHg 84%
    18:00 +10°C° 0 mm 0 mps 634 mmHg 92%
    19:00 +11°C° 0 mm 1 mps 634 mmHg 92%
    20:00 +10°C° 0 mm 1 mps 634 mmHg 93%
    21:00 +10°C° 0 mm 1 mps 634 mmHg 93%
    22:00 +10°C° 0 mm 1 mps 634 mmHg 93%
    23:00 +10°C° 0 mm 1 mps 634 mmHg 92%

    22 October, Tuesday

    Time Temperature Precipitation Wind Pressure Humidity
    00:00 +10°C° 0 mm 1 mps 634 mmHg 91%
    01:00 +10°C° 0 mm 1 mps 633 mmHg 90%
    02:00 +9°C° 0 mm 1 mps 633 mmHg 90%
    03:00 +9°C° 0 mm 1 mps 633 mmHg 90%
    04:00 +9°C° 0 mm 1 mps 632 mmHg 89%
    05:00 +8°C° 0 mm 1 mps 632 mmHg 89%
    06:00 +8°C° 0 mm 1 mps 632 mmHg 88%
    07:00 +10°C° 0 mm 1 mps 633 mmHg 80%
    08:00 +12°C° 0 mm 1 mps 634 mmHg 71%
    09:00 +14°C° 0 mm 1 mps 635 mmHg 62%
    10:00 +15°C° 0 mm 1 mps 635 mmHg 58%
    11:00 +16°C° 0 mm 1 mps 635 mmHg 54%
    12:00 +18°C° 0 mm 1 mps 636 mmHg 50%
    13:00 +18°C° 0 mm 1 mps 635 mmHg 52%
    14:00 +17°C° 0 mm 2 mps 635 mmHg 55%
    15:00 +17°C° 0 mm 2 mps 635 mmHg 57%
    16:00 +15°C° 0 mm 1 mps 634 mmHg 68%
    17:00 +13°C° 0 mm 1 mps 633 mmHg 78%
    18:00 +11°C° 0 mm 1 mps 633 mmHg 88%
    19:00 +10°C° 0 mm 1 mps 633 mmHg 88%
    20:00 +10°C° 0 mm 1 mps 633 mmHg 88%
    21:00 +9°C° 0 mm 1 mps 632 mmHg 89%
    22:00 +9°C° 0 mm 1 mps 632 mmHg 87%
    23:00 +9°C° 0 mm 1 mps 632 mmHg 85%
    Show more